Погода в Молоково

Россия / Тверская область     58°09′56″N   36°45′50″E
темп.,
°C
ветер,
м/с
пор.,
м/с
влажн.,
%
обл.,
%
осадки,
мм/ч
давл.,
гПа
погр.,
м
13 апреля, вт
вт1300:00+8ююв41182100 0.0 1027428
03:00+7юв41089100 0.0 1026262
06:00+6юв4996100 0.0 1025212
09:00+9ююв4986100 0.0 1024324
12:00+13ю4972100 0.0 1023616
15:00+17ююз51061100 0.0 10221115
18:00+15ю2572100 0.0 102193
21:00+11ююв3118299 0.0 1021195
14 апреля, ср
ср1400:00+10ю4137583 0.0 1020279
03:00+9ююв388266 0.0 1020141
06:00+7ююв398362 0.0 1019154
09:00+9ююв497681 0.0 1019250
12:00+15ю5959100 0.0 1018693
15:00+17ююз5954100 0.0 10171274
18:00+16юз476281 0.3 1017306
21:00+11с2593100 1.6 1018156
15 апреля, чт
чт1500:00+9ссв3597100 0.8 1019220
03:00+8ссв4796100 1.1 1020371
06:00+6ссв4894100 0.1 1020333
09:00+6ссв4793100 0.3 1021386
12:00+7ссв5886100 0.1 1022472
15:00+7св5985100 0.1 1023499
18:00+6св51282100 0.0 1023570
21:00+5св51290100 0.0 1024503
16 апреля, пт
пт1600:00+5св51189100 0.0 1024582
03:00+4св4118875 0.0 1024475
06:00+2св4119056 0.0 1026384
09:00+5св610665 0.0 1026603
12:00+8св684753 0.0 10271041
15:00+9св674173 0.0 10281214
18:00+8св585099 0.0 10281149
21:00+5св4116611 0.0 1030322
17 апреля, сб
сб1700:00+3св311744 0.0 1031288
03:00+1св39814 0.0 1033213
06:00+1св411875 0.0 1034370
09:00+4св59644 0.0 1036710
12:00+7всв58380 0.0 10361145
15:00+8всв57350 0.0 10361262
18:00+7всв46440 0.0 1037993
21:00+3всв23606 0.0 103848